Weather History for San Jose, Costa Rica

Change the Weather History Date:

Friday, November 11, 2011

  Actual Average Record
Temperature  
Mean Temperature 72 °F -  
Max Temperature 78 °F 78 °F 84 °F (1996)
Min Temperature 66 °F 64 °F 60 °F (2007)
Cooling Degree Days 7    
Growing Degree Days 22 (Base 50)    
Moisture  
Dew Point 57 °F    
Average Humidity 55    
Maximum Humidity 73    
Minimum Humidity 37    
Precipitation  
Precipitation 0.00 in 0.13 in - ()
Sea Level Pressure  
Sea Level Pressure 29.96 in    
Wind  
Wind Speed 11 mph ()    
Max Wind Speed 21 mph    
Max Gust Speed -    
Visibility 8.0 miles    
Events      
Averages and records for this station are not official NWS values.
T = Trace of Precipitation, MM = Missing Value Source: Averaged Metar Reports

Daily Weather History Graph

Daily Weather History Graph

Search for Another Location

Airport:

Trip Planner

Search our weather history database for the weather conditions in past years. The results will help you decide how hot, cold, wet, or windy it might be!

Date:

Astronomy

Nov. 11, 2011 Rise Set
Actual Time 5:29 AM CST 5:11 PM CST
Civil Twilight 5:07 AM CST 5:33 PM CST
Nautical Twilight 4:42 AM CST 5:59 PM CST
Astronomical Twilight 4:17 AM CST 6:24 PM CST
Moon 5:55 PM CST (11/11) 6:03 AM CST (11/11)
Length of Visible Light 12h 25m
Length of Day
11h 41m
Full, 99% of the Moon is Illuminated
Nov 11
Full
Nov 18
Last Quarter
Nov 25
New
Dec 2
First Quarter
Dec 10
Full

Hourly Weather History & Observations

Time (CST) Temp. Dew Point Humidity Pressure Visibility Wind Dir Wind Speed Gust Speed Precip Events Conditions
12:00 AM 68 °F 56 °F 58% 29.91 in 12 mi NE 12.7 mph - -   Overcast
3:00 AM 69 °F 57 °F 56% 29.82 in 12 mi ESE 11.5 mph - -   Partly Cloudy
5:00 AM 66.2 °F 57.2 °F 73% 29.98 in 6.2 mi East 6.9 mph - N/A   Scattered Clouds
6:00 AM 68 °F 58 °F 61% 29.88 in 12 mi East 11.5 mph - -   Scattered Clouds
7:00 AM 69.8 °F 59.0 °F 68% 30.01 in 6.2 mi East 10.4 mph - N/A   Scattered Clouds
8:00 AM 71.6 °F 57.2 °F 60% 30.06 in 6.2 mi East 10.4 mph - N/A   Mostly Cloudy
9:00 AM 73.4 °F 53.6 °F 50% 30.07 in 6.2 mi East 13.8 mph - N/A   Mostly Cloudy
10:00 AM 77.0 °F 55.4 °F 47% 30.06 in 6.2 mi East 12.7 mph - N/A   Scattered Clouds
11:00 AM 77.0 °F 55.4 °F 47% 30.00 in 6.2 mi East 13.8 mph - N/A   Scattered Clouds
12:00 PM 76 °F 55 °F 38% 29.86 in 12 mi East 13.8 mph - -   Scattered Clouds
12:00 PM 77.0 °F 55.4 °F 47% 29.98 in 6.2 mi East 13.8 mph - N/A   Scattered Clouds
1:00 PM 77.0 °F 55.4 °F 47% 29.96 in 6.2 mi East 17.3 mph - N/A   Scattered Clouds
2:00 PM 77.0 °F 55.4 °F 47% 29.94 in 6.2 mi East 13.8 mph - N/A   Scattered Clouds
3:00 PM 77 °F 55 °F 37% 29.83 in 12 mi East 20.7 mph - -   Scattered Clouds
3:00 PM 77.0 °F 55.4 °F 47% 29.94 in 6.2 mi East 20.7 mph - N/A   Scattered Clouds
4:00 PM 73.4 °F 57.2 °F 57% 29.95 in 6.2 mi East 18.4 mph - N/A   Scattered Clouds
5:00 PM 73.4 °F 55.4 °F 53% 29.96 in 6.2 mi East 12.7 mph - N/A   Scattered Clouds
6:00 PM 71 °F 58 °F 54% 29.87 in 12 mi East 13.8 mph - -   Mostly Cloudy
9:00 PM 69.8 °F 59.0 °F 68% 30.04 in 6.2 mi NE 6.9 mph - N/A   Scattered Clouds
10:00 PM 69.8 °F 59.0 °F 68% 30.04 in - ESE 8.1 mph - N/A   Clear
11:00 PM 68.0 °F 59.0 °F 73% 30.04 in - ESE 8.1 mph - N/A   Clear